Showing default

PRAETORIAN SDA_603, 65566

Orbit data source: Space-Track

PRAETORIAN SDA_603, 65566 is a payload satellite owned by SDA (US) in LEO that was launched on Wed, 10 Sep 2025 UTC via an FALCON 9 launch vehicle from the Air Force Western Test Range (AFWTR). Payload-class satellites include a variety of spacecraft equipped with specific instruments for various scientific and technological missions. These include communications satellites like Starlink; space stations such as the ISS; scientific satellites like the Hubble; Earth observation satellites from companies like Planet Labs, Umbra, and HawkEye 360; GPS; miniature CubeSats for education and research; and military/defense satellites.

Loading next visibility...
Identifier
65566, 2025-203B
Orbit
LEO
Country
Flag of USUS
Related business
Manufacturer
York Space Sys
Mission
Operational Defense Communications
Bus & Motor
S-CLASS, Unknown motor
Mass
~300 kg wet, ~300 kg dry
Launch date (UTC)
2025-09-10 (9 months ago)
Launch vehicle
FALCON 9
Launch site
Air Force Western Test Range (AFWTR)
Object type
Payload
Rocket body
Debris
Shape & HBR
Box + 4 Pan, 14.5 m
Radar Cross Section
1.244 m², Large (>1 m²)

Expand to show TLE details & history
Last TLE update: 13 hours ago

TLE from 13 hours ago
0 PRAETORIAN SDA_603
1 65566U 25203B   26171.30411024  .00000275  00000-0  23691-3 0  9990
2 65566  81.3037   7.7998 0009556 178.7312 181.3871 13.83904580 39132
Epoch: 2026-06-20T07:17Z
TLE epoch observation values (Epoch: 2026-06-20T07:17:55.124Z)
Latitude
0.00001°
Longitude
-10.20054°
Altitude
959.938 km
Speed
7.368 km/s
True Right ascension
00h 31m 11s
True Declination
0° 00' 00"
Sunlit
Object was in daylight at epoch
Visualization orbit readout
Latitude
Unknown
Longitude
Unknown
Altitude
Unknown
Speed
Unknown
Apparent Right ascension
Unknown
Apparent Declination
Unknown
Sunlit
N/A
Visualization observer readout
Local Sidereal Time
07:15:01
Azimuth
Unknown
Elevation
Unknown
Doppler factor
Unknown
Orbital elements
Apogee altitude
954.277 km
Perigee altitude
940.277 km
Semi-major axis
7,325.414 km
Eccentricity
0.00096
Inclination
81.3037°
RAAN
7.7998°
Arg. of periapsis
178.7312°
True anomaly
181.38445°
Mean anomaly
181.3871°
Eccentric anomaly
181.38578°
Mean motion
3.46174 °/min
Orbital period
103.99 mins
BSTAR
0.00023691
Loading maneuver chart data...
Computing Atmospheric mass density...
Loading historical data...
Loading historical data...
Loading historical data...
Loading historical data...
Loading historical data...
Loading historical data...
Loading historical data...

Documentation

Showing up to 5 results
|